DW5678 Kavala GR current weather conditions

sailwx.info

Wind from 227

Air temperature 20.6° C
Dewpoint 16.2° C

Last reported at 2016-Sep-30 17:45 UTC.
Time now 2016-Sep-30 18:35 UTC

Location: N 40°56' E 024°24'.
View on Google Maps.

See reports from other nearby stations

  
Tides and Currents Weather Stations Pressure Air Temp Water Temp Dewpoint Dewpoint Depression Visibility Wind Speed Wind Dir Waves Ship Positions
date/time (UTC)wind fromknots sea level pressurealtimeterstation pressurevisibilityair tempwater tempwave heightnotes
2016-Sep-30 17:45 227 20.6
2016-Sep-30 17:15 227 20.6
2016-Sep-30 17:00 227 21.1
2016-Sep-30 15:45 227 22.2
2016-Sep-30 15:30 227 22.2
2016-Sep-30 15:15 227 22.2
2016-Sep-30 15:00 134 22.2
2016-Sep-30 14:45 212 22.2
2016-Sep-30 14:30 213 0 gusting 4 22.8
2016-Sep-30 14:15 232 0 gusting 4 22.8
2016-Sep-30 14:00 124 0 gusting 4 22.2
2016-Sep-30 13:30 209 1 gusting 4 22.8
2016-Sep-30 13:15 156 0 gusting 4 22.8
2016-Sep-30 13:00 138 0 gusting 4 22.8
2016-Sep-30 12:00 211 1 gusting 5 22.8
2016-Sep-30 11:45 127 0 gusting 5 22.8
2016-Sep-30 11:30 196 1 gusting 4 22.8
2016-Sep-30 11:00 148 0 gusting 4 23.3
2016-Sep-30 10:30 192 22.8
2016-Sep-30 10:15 193 22.2
2016-Sep-30 10:00 165 1 gusting 5 22.2
2016-Sep-30 09:15 220 1 gusting 6 22.2
2016-Sep-30 09:00 199 1 gusting 5 22.8
2016-Sep-30 08:45 197 2 gusting 6 22.8
2016-Sep-30 08:30 216 1 gusting 6 22.8
2016-Sep-30 08:00 243 2 gusting 6 21.7
2016-Sep-30 07:30 199 1 gusting 5 21.7
2016-Sep-30 07:15 255 0 gusting 4 21.7
2016-Sep-30 06:45 238 20.6
2016-Sep-30 06:30 238 20.0
2016-Sep-30 06:15 238 18.9
2016-Sep-30 05:45 238 18.3
2016-Sep-30 05:30 238 17.8
2016-Sep-30 04:30 239 16.7
2016-Sep-30 04:15 239 16.7
2016-Sep-30 04:00 239 0 gusting 1 16.7
2016-Sep-30 03:45 239 16.7
2016-Sep-30 03:30 239 0 gusting 1 16.7
2016-Sep-30 03:15 229 17.2
2016-Sep-30 03:00 229 17.2
2016-Sep-30 02:30 021 16.7
2016-Sep-30 02:15 021 16.7
2016-Sep-30 02:00 245 16.7
2016-Sep-30 01:45 245 16.7
2016-Sep-30 01:30 245 17.2
2016-Sep-30 01:15 245 17.2
2016-Sep-30 00:45 245 17.2
2016-Sep-30 00:30 245 17.2
2016-Sep-30 00:15 245 17.2
2016-Sep-30 00:00 245 17.8
2016-Sep-29 23:45 245 17.8
2016-Sep-29 23:30 245 17.8
2016-Sep-29 23:15 245 18.3
2016-Sep-29 23:00 245 18.3
2016-Sep-29 22:45 245 18.9
2016-Sep-29 22:30 245 18.9
2016-Sep-29 22:15 245 18.9
2016-Sep-29 21:45 245 18.9
2016-Sep-29 21:30 245 18.9
2016-Sep-29 21:15 245 18.9
2016-Sep-29 21:00 245 18.9
2016-Sep-29 20:45 245 18.9
2016-Sep-29 20:15 245 19.4
2016-Sep-29 20:00 245 19.4
2016-Sep-29 19:45 245 19.4
2016-Sep-29 19:30 245 19.4
2016-Sep-29 19:00 245 19.4
2016-Sep-29 18:15 245 20.0
2016-Sep-29 18:00 245 20.0
2016-Sep-29 17:00 245 20.6
2016-Sep-29 16:45 245 20.6
2016-Sep-29 16:30 245 21.1
2016-Sep-29 15:45 226 0 gusting 4 21.7
2016-Sep-29 15:15 237 1 gusting 5 21.7
2016-Sep-29 15:00 216 0 gusting 5 22.2
2016-Sep-29 14:45 209 1 gusting 6 22.2
2016-Sep-29 14:30 221 2 gusting 6 22.2
2016-Sep-29 13:45 226 2 gusting 6 22.2
2016-Sep-29 13:15 237 2 gusting 6 22.2
2016-Sep-29 13:00 225 4 gusting 6 22.2
2016-Sep-29 12:30 214 2 gusting 6 22.8
2016-Sep-29 12:15 221 3 gusting 6 22.2
2016-Sep-29 11:45 224 4 gusting 8 22.8
2016-Sep-29 11:30 240 4 gusting 6 22.2
2016-Sep-29 11:15 218 4 gusting 6 21.7
2016-Sep-29 11:00 204 3 gusting 6 22.2
2016-Sep-29 10:45 231 2 gusting 6 22.8
2016-Sep-29 10:30 247 1 gusting 6 22.2
2016-Sep-29 09:45 197 1 gusting 6 22.2
2016-Sep-29 09:00 197 1 gusting 5 22.2
2016-Sep-29 08:45 103 0 gusting 6 22.2
2016-Sep-29 08:30 286 0 gusting 6 21.7
2016-Sep-29 08:00 278 1 gusting 6 21.1
2016-Sep-29 07:45 157 2 gusting 6 20.6
2016-Sep-29 07:30 043 0 gusting 6 20.6
2016-Sep-29 07:15 313 4 gusting 7 19.4
2016-Sep-29 07:00 157 1 gusting 6 18.9
2016-Sep-29 06:45 263 1 gusting 5 18.3
2016-Sep-29 06:30 212 0 gusting 6 18.3
2016-Sep-29 06:00 234 17.8
2016-Sep-29 05:45 234 0 gusting 2 17.2
2016-Sep-29 05:30 234 0 gusting 2 17.2
2016-Sep-29 05:15 234 16.7
2016-Sep-29 05:00 234 16.1
2016-Sep-29 04:45 234 16.1
2016-Sep-29 04:15 234 16.1
2016-Sep-29 04:00 234 16.1
2016-Sep-29 03:45 234 16.1
2016-Sep-29 03:30 234 16.1
2016-Sep-29 03:15 234 16.1
2016-Sep-29 03:00 234 16.1
2016-Sep-29 02:45 234 16.7
2016-Sep-29 02:15 234 16.7
2016-Sep-29 01:45 234 16.7
2016-Sep-29 01:15 234 16.7
2016-Sep-29 01:00 234 17.2
2016-Sep-29 00:30 234 17.2
2016-Sep-28 23:45 234 17.8
2016-Sep-28 23:30 234 17.8
2016-Sep-28 22:45 234 18.3
2016-Sep-28 22:15 234 18.9
2016-Sep-28 22:00 234 0 gusting 1 18.9
2016-Sep-28 21:30 234 19.4
2016-Sep-28 21:15 234 19.4
2016-Sep-28 21:00 234 19.4
2016-Sep-28 20:45 234 18.9
2016-Sep-28 20:30 234 18.9
2016-Sep-28 20:15 234 18.9
2016-Sep-28 19:45 234 18.9
2016-Sep-28 19:30 234 18.9
2016-Sep-28 19:00 234 18.9
2016-Sep-28 18:30 234 18.9
2016-Sep-28 18:00 234 19.4